Weather History for Pompano Beach, FL

Change the Weather History Date:

Saturday, November 10, 2012

  Actual Average Record
Temperature  
Mean Temperature 72 °F -  
Max Temperature 75 °F 83 °F 89 °F (1987)
Min Temperature 68 °F 66 °F 47 °F (1956)
Cooling Degree Days 6    
Growing Degree Days 22 (Base 50)    
Moisture  
Dew Point 53 °F    
Average Humidity 52    
Maximum Humidity 57    
Minimum Humidity 45    
Precipitation  
Precipitation 0.00 in - - ()
Sea Level Pressure  
Sea Level Pressure 30.22 in    
Wind  
Wind Speed 11 mph (ENE)    
Max Wind Speed 17 mph    
Max Gust Speed 24 mph    
Visibility 10 miles    
Events      
Averages and records for this station are not official NWS values.
T = Trace of Precipitation, MM = Missing Value Source: NWS Daily Summary

Daily Weather History Graph

Daily Weather History Graph

Search for Another Location

Airport:

Trip Planner

Search our weather history database for the weather conditions in past years. The results will help you decide how hot, cold, wet, or windy it might be!

Date:

Astronomy

Nov. 10, 2012 Rise Set
Actual Time 6:35 AM EST 5:32 PM EST
Civil Twilight 6:11 AM EST 5:56 PM EST
Nautical Twilight 5:43 AM EST 6:24 PM EST
Astronomical Twilight 5:16 AM EST 6:51 PM EST
Moon 2:58 AM EST (11/10) 3:02 PM EST (11/10)
Length of Visible Light 11h 45m
Length of Day
10h 56m
Waning Crescent, 14% of the Moon is Illuminated
Nov 10
Waning Crescent
Nov 13
New
Nov 20
First Quarter
Nov 28
Full
Dec 6
Last Quarter

Hourly Weather History & Observations

Time (EST) Temp. Dew Point Humidity Pressure Visibility Wind Dir Wind Speed Gust Speed Precip Events Conditions
12:53 AM 68.0 °F 50.0 °F 52% 30.19 in 10.0 mi NE 8.1 mph - N/A   Mostly Cloudy
1:53 AM 70.0 °F 52.0 °F 53% 30.18 in 10.0 mi ENE 8.1 mph - N/A   Overcast
2:53 AM 70.0 °F 53.1 °F 55% 30.18 in 10.0 mi ENE 15.0 mph - N/A   Overcast
3:53 AM 70.0 °F 50.0 °F 49% 30.18 in 10.0 mi NE 13.8 mph - N/A   Overcast
4:53 AM 70.0 °F 51.1 °F 51% 30.20 in 10.0 mi ENE 8.1 mph - N/A   Overcast
5:53 AM 70.0 °F 51.1 °F 51% 30.21 in 10.0 mi ENE 10.4 mph - N/A   Overcast
7:53 AM 71.1 °F 51.1 °F 49% 30.24 in 10.0 mi NE 9.2 mph - N/A   Overcast
8:53 AM 73.0 °F 53.1 °F 49% 30.25 in 10.0 mi ENE 13.8 mph 19.6 mph N/A   Mostly Cloudy
9:53 AM 72.0 °F 53.1 °F 51% 30.27 in 10.0 mi NE 11.5 mph 17.3 mph N/A   Overcast
10:53 AM 73.0 °F 55.9 °F 55% 30.26 in 10.0 mi ENE 11.5 mph 20.7 mph N/A   Overcast
11:53 AM 73.9 °F 53.1 °F 48% 30.26 in 10.0 mi ENE 13.8 mph - N/A   Mostly Cloudy
12:53 PM 73.9 °F 51.1 °F 45% 30.23 in 10.0 mi East 13.8 mph - N/A   Mostly Cloudy
1:53 PM 75.0 °F 53.1 °F 46% 30.21 in 10.0 mi ENE 13.8 mph - N/A   Mostly Cloudy
2:53 PM 73.9 °F 53.1 °F 48% 30.19 in 10.0 mi ENE 15.0 mph 21.9 mph N/A   Scattered Clouds
3:53 PM 73.0 °F 53.1 °F 49% 30.20 in 10.0 mi ENE 13.8 mph - N/A   Partly Cloudy
4:53 PM 72.0 °F 54.0 °F 53% 30.21 in 10.0 mi ENE 11.5 mph - N/A   Scattered Clouds
5:53 PM 71.1 °F 54.0 °F 55% 30.22 in 10.0 mi ENE 11.5 mph 20.7 mph N/A   Scattered Clouds
6:53 PM 71.1 °F 55.0 °F 57% 30.23 in 10.0 mi ENE 13.8 mph 24.2 mph N/A   Mostly Cloudy
7:53 PM 71.1 °F 54.0 °F 55% 30.23 in 10.0 mi ENE 15.0 mph 24.2 mph N/A   Scattered Clouds
8:53 PM 72.0 °F 55.9 °F 57% 30.24 in 10.0 mi ENE 17.3 mph 24.2 mph N/A   Scattered Clouds
9:53 PM 72.0 °F 55.0 °F 55% 30.23 in 10.0 mi ENE 13.8 mph - N/A   Clear